Location: Observatoire
(46.1952°N, 5.3391°E)
Time: 15:30:04
(UTC+01:00)

A-11 Canister half - Pass Details

Date: 20 February 2026
Orbit: 1513 x 1687 km, 47.2° (Epoch: 11 March)

Event Time Altitude Azimuth Distance (km) Brightness Sun altitude
Rises 01:11:46 0° 282° (WNW) 4,919 - -54.6°
Reaches altitude 10° 01:14:57 10° 282° (WNW) 3,915 - -54.5°
Maximum altitude 01:25:01 87° 196° (SSW) 1,628 - -54.1°
Drops below altitude 10° 01:34:41 10° 108° (ESE) 3,774 - -53.7°
Sets 01:37:42 0° 108° (ESE) 4,735 - -53.5°
